EW5010 Weather Reports


time (UTC)temp
C
wind
direction
speed
KPH
gust
KPH
rain 1hr
cm
rain 24hr
cm
rain mn
cm
humidity
%
barometer
mb
20260509064919 21 213 0.0 4.8 0.00 0.00 0.00 86 1009.3
20260509064417 21 199 1.6 9.7 0.00 0.00 0.00 86 1009.4
20260509063914 21 206 0.0 6.4 0.00 0.00 0.00 86 1009.5
20260509063410 21 159 1.6 8.0 0.00 0.00 0.00 86 1009.5
20260509062907 21 181 1.6 6.4 0.00 0.00 0.00 87 1009.5
20260509062405 21 210 3.2 4.8 0.00 0.00 0.00 86 1009.5
20260509061902 21 177 0.0 3.2 0.00 0.00 0.00 85 1009.6
20260509061400 21 180 0.0 4.8 0.00 0.00 0.00 85 1010.1
20260509060856 21 195 0.0 3.2 0.00 0.00 0.00 85 1010.2
20260509060353 21 179 1.6 3.2 0.00 0.00 0.00 85 1010.0
20260509055848 21 185 0.0 3.2 0.00 0.00 0.00 85 1010.2
20260509055343 21 292 3.2 3.2 0.00 0.00 0.00 85 1010.5
20260509054841 21 211 0.0 4.8 0.00 0.00 0.00 85 1010.0
20260509054337 22 145 3.2 3.2 0.00 0.00 0.00 84 1009.9
20260509053836 22 197 1.6 3.2 0.00 0.00 0.00 84 1010.4
20260509053333 22 240 0.0 3.2 0.00 0.00 0.00 84 1010.8
20260509052831 22 244 1.6 3.2 0.00 0.00 0.00 85 1010.8
20260509052328 22 297 0.0 3.2 0.00 0.00 0.00 84 1011.1
20260509051826 22 290 3.2 3.2 0.00 0.00 0.00 84 1010.4
20260509051324 22 194 1.6 8.0 0.00 0.00 0.00 84 1009.8
20260509050820 22 180 3.2 8.0 0.00 0.00 0.00 84 1009.6
20260509050317 22 195 1.6 9.7 0.00 0.00 0.00 84 1009.9
20260509045814 22 202 0.0 3.2 0.00 0.00 0.00 84 1009.7
20260509045310 21 170 4.8 8.0 0.00 0.00 0.00 84 1009.4
20260509044808 21 174 1.6 9.7 0.00 0.00 0.00 84 1009.3
20260509044306 21 195 1.6 6.4 0.00 0.00 0.00 85 1009.2
20260509043802 21 151 4.8 12.9 0.00 0.00 0.00 85 1009.1
20260509043258 21 149 12.9 14.5 0.00 0.00 0.00 87 1009.1
20260509042754 22 141 12.9 16.1 0.00 0.00 0.00 84 1009.3
20260509042250 22 131 8.0 8.0 0.00 0.00 0.00 83 1009.8
20260509041747 22 119 3.2 3.2 0.00 0.00 0.00 82 1010.0
20260509041244 22 142 0.0 1.6 0.00 0.00 0.00 80 1010.2
20260509040743 22 141 0.0 0.0 0.00 0.00 0.00 81 1010.3
20260509040239 22 129 0.0 0.0 0.00 0.00 0.00 81 1010.3
20260509035736 22 44 0.0 0.0 0.00 0.00 0.00 81 1010.4
20260509035233 22 15 0.0 0.0 0.00 0.00 0.00 82 1010.4
20260509034730 22 148 0.0 0.0 0.00 0.00 0.00 82 1010.2
20260509034228 22 148 0.0 0.0 0.00 0.00 0.00 82 1010.2
20260509033724 22 147 0.0 1.6 0.00 0.00 0.00 83 1010.0
20260509033221 22 152 4.8 6.4 0.00 0.00 0.00 82 1009.7
20260509032719 22 150 6.4 6.4 0.00 0.00 0.00 82 1009.6
20260509032215 22 151 1.6 3.2 0.00 0.00 0.00 82 1009.6
20260509031713 22 114 0.0 3.2 0.00 0.00 0.00 82 1009.8
20260509031210 22 124 0.0 3.2 0.00 0.00 0.00 82 1009.5
20260509030708 22 119 4.8 6.4 0.00 0.00 0.00 82 1009.6
20260509030205 22 136 9.7 9.7 0.00 0.00 0.00 82 1009.6
20260509025701 22 138 9.7 9.7 0.00 0.00 0.00 82 1009.2
20260509025158 22 145 9.7 11.3 0.00 0.00 0.00 83 1009.3
20260509024653 22 143 9.7 11.3 0.00 0.00 0.00 84 1009.0
20260509024149 21 141 8.0 8.0 0.00 0.00 0.00 85 1009.0
20260509023647 21 140 3.2 4.8 0.00 0.00 0.00 86 1009.2
20260509023144 22 134 8.0 9.7 0.00 0.00 0.00 85 1008.8
20260509022640 22 137 8.0 9.7 0.00 0.00 0.00 85 1008.9
20260509022138 22 138 8.0 8.0 0.00 0.00 0.00 84 1008.9
20260509021634 22 145 6.4 8.0 0.00 0.00 0.00 83 1008.9
20260509021132 22 143 4.8 9.7 0.00 0.00 0.00 81 1008.8
20260509020630 22 159 3.2 8.0 0.00 0.00 0.00 81 1008.8
20260509020126 22 166 1.6 4.8 0.00 0.00 0.00 80 1008.9
20260509015626 22 217 0.0 4.8 0.00 0.00 0.00 79 1008.7
20260509015122 22 202 0.0 3.2 0.00 0.00 0.00 80 1008.7
20260509014619 22 196 3.2 4.8 0.00 0.00 0.00 81 1008.7
20260509014115 22 152 1.6 4.8 0.00 0.00 0.00 81 1008.8
20260509013613 22 143 1.6 4.8 0.00 0.00 0.00 80 1008.5
20260509013108 22 143 3.2 4.8 0.00 0.00 0.00 79 1008.5
20260509012605 22 210 3.2 4.8 0.00 0.00 0.00 78 1008.6
20260509012102 22 230 0.0 3.2 0.00 0.00 0.00 78 1008.4
20260509011600 22 212 4.8 4.8 0.00 0.00 0.00 79 1008.3
20260509011056 22 203 3.2 4.8 0.00 0.00 0.00 78 1008.4
20260509010554 22 195 0.0 3.2 0.00 0.00 0.00 78 1008.1
20260509010051 22 230 0.0 4.8 0.00 0.00 0.00 78 1008.1
20260509005549 22 157 1.6 4.8 0.00 0.00 0.00 78 1008.1
20260509005044 22 215 3.2 4.8 0.00 0.00 0.00 79 1008.1
20260509004541 22 152 3.2 4.8 0.00 0.00 0.00 79 1008.1
20260509004038 22 153 1.6 6.4 0.00 0.00 0.00 79 1008.0
20260509003536 22 152 6.4 6.4 0.00 0.00 0.00 78 1007.9
20260509003033 22 148 3.2 3.2 0.00 0.00 0.00 78 1007.8
20260509002530 22 158 3.2 6.4 0.00 0.00 0.00 78 1007.8
20260509002027 22 153 3.2 3.2 0.00 0.00 0.00 77 1007.9
20260509001525 22 190 0.0 4.8 0.00 0.00 0.00 77 1008.0
20260509001020 22 168 1.6 6.4 0.00 0.00 0.00 77 1007.9
20260509000519 22 147 6.4 8.0 0.00 0.00 0.00 78 1008.0
20260509000015 22 146 4.8 6.4 0.00 0.00 0.00 78 1008.2
20260508235514 22 148 4.8 8.0 0.00 0.00 0.00 77 1008.3
20260508235009 22 151 3.2 4.8 0.00 0.00 0.00 75 1008.1
20260508234507 22 146 3.2 4.8 0.00 0.00 0.00 75 1008.4
20260508234004 22 152 3.2 6.4 0.00 0.00 0.00 76 1008.4
20260508233503 22 143 6.4 6.4 0.00 0.00 0.00 75 1008.4
20260508233000 22 139 6.4 6.4 0.00 0.00 0.00 75 1008.4
20260508232457 22 143 4.8 9.7 0.00 0.00 0.00 75 1008.6
20260508231954 22 143 9.7 9.7 0.00 0.00 0.00 75 1008.4
20260508231451 22 147 8.0 9.7 0.00 0.00 0.00 75 1008.5
20260508230948 22 154 6.4 11.3 0.00 0.00 0.00 75 1008.5
20260508230445 22 141 11.3 16.1 0.00 0.00 0.00 74 1008.6
20260508225942 22 151 8.0 9.7 0.00 0.00 0.00 74 1008.6
20260508225439 23 148 9.7 12.9 0.00 0.00 0.00 74 1008.7
20260508224936 23 142 16.1 17.7 0.00 0.00 0.00 72 1008.7
20260508224433 23 147 9.7 12.9 0.00 0.00 0.00 73 1008.6
20260508223930 22 166 6.4 12.9 0.00 0.00 0.00 72 1008.7
20260508223428 23 149 9.7 12.9 0.00 0.00 0.00 72 1008.5
20260508222925 23 150 9.7 11.3 0.00 0.00 0.00 72 1008.6
20260508222423 23 143 4.8 9.7 0.00 0.00 0.00 73 1008.6
20260508221919 23 166 3.2 11.3 0.00 0.00 0.00 71 1008.4
20260508221415 23 186 4.8 8.0 0.00 0.00 0.00 71 1008.5
20260508220911 23 177 4.8 11.3 0.00 0.00 0.00 70 1008.5
20260508220407 23 155 4.8 8.0 0.00 0.00 0.00 70 1008.3
20260508215904 24 162 3.2 8.0 0.00 0.00 0.00 70 1008.4
20260508215401 23 180 3.2 9.7 0.00 0.00 0.00 73 1008.6
20260508214857 23 146 9.7 9.7 0.00 0.00 0.00 73 1008.2
20260508214355 23 146 8.0 9.7 0.00 0.00 0.00 74 1008.2
20260508213851 23 147 8.0 11.3 0.00 0.00 0.00 75 1008.3
20260508213348 22 134 8.0 14.5 0.00 0.00 0.00 74 1008.1
20260508212844 22 132 16.1 17.7 0.00 0.00 0.00 77 1008.2
20260508212341 22 125 14.5 14.5 0.00 0.00 0.00 78 1008.7
20260508211836 22 150 8.0 9.7 0.00 0.00 0.00 77 1009.0
20260508211332 22 149 9.7 12.9 0.00 0.00 0.00 77 1009.4
20260508210830 22 148 11.3 14.5 0.00 0.00 0.00 75 1009.1
20260508210327 22 149 11.3 14.5 0.00 0.00 0.00 74 1009.3
20260508205824 22 157 6.4 8.0 0.00 0.00 0.00 71 1009.8
20260508205320 23 180 3.2 9.7 0.00 0.00 0.00 69 1010.1
20260508204816 23 196 6.4 11.3 0.00 0.00 0.00 67 1010.1
20260508204313 23 213 3.2 9.7 0.00 0.00 0.00 66 1010.2
20260508203809 23 164 4.8 6.4 0.00 0.00 0.00 66 1010.3
20260508203305 23 208 6.4 9.7 0.00 0.00 0.00 65 1010.4
20260508202801 23 259 1.6 3.2 0.00 0.00 0.00 66 1010.3
20260508202259 23 174 9.7 9.7 0.00 0.00 0.00 65 1010.2
20260508201756 23 192 3.2 8.0 0.00 0.00 0.00 65 1010.3
20260508201252 23 177 1.6 6.4 0.00 0.00 0.00 65 1010.3
20260508200749 23 188 1.6 9.7 0.00 0.00 0.00 65 1010.2
20260508200245 23 180 3.2 8.0 0.00 0.00 0.00 66 1010.2
20260508195741 24 201 3.2 9.7 0.00 0.00 0.00 64 1010.3
20260508195238 24 191 8.0 12.9 0.00 0.00 0.00 63 1010.3
20260508194735 24 198 8.0 11.3 0.00 0.00 0.00 64 1010.4
20260508194232 24 145 8.0 9.7 0.00 0.00 0.00 66 1010.3
20260508193729 24 168 3.2 14.5 0.00 0.00 0.00 66 1010.4
20260508193225 24 156 8.0 9.7 0.00 0.00 0.00 66 1010.4
20260508192722 24 195 3.2 11.3 0.00 0.00 0.00 66 1010.4
20260508192219 24 148 8.0 14.5 0.00 0.00 0.00 66 1010.6
20260508191716 24 154 6.4 9.7 0.00 0.00 0.00 65 1010.6
20260508191213 24 148 8.0 14.5 0.00 0.00 0.00 65 1010.5
20260508190710 24 154 6.4 9.7 0.00 0.00 0.00 64 1010.7
20260508190206 25 153 11.3 12.9 0.00 0.00 0.00 63 1010.6
20260508185703 24 133 1.6 9.7 0.00 0.00 0.00 64 1010.9
20260508185201 25 150 12.9 14.5 0.00 0.00 0.00 63 1010.6
20260508184658 25 191 4.8 12.9 0.00 0.00 0.00 63 1010.9
20260508184155 24 200 0.0 9.7 0.00 0.00 0.00 65 1010.8
20260508183652 24 143 4.8 9.7 0.00 0.00 0.00 64 1010.9
20260508183148 24 156 4.8 8.0 0.00 0.00 0.00 63 1011.0
20260508182644 24 184 1.6 6.4 0.00 0.00 0.00 64 1011.0
20260508182141 24 146 4.8 9.7 0.00 0.00 0.00 66 1011.0
20260508181636 23 180 3.2 8.0 0.00 0.00 0.00 63 1011.2
20260508181134 23 148 6.4 9.7 0.00 0.00 0.00 64 1011.2
20260508180630 23 149 6.4 11.3 0.00 0.00 0.00 65 1011.2
20260508180127 23 144 3.2 9.7 0.00 0.00 0.00 65 1011.6
20260508175623 23 168 4.8 8.0 0.00 0.00 0.00 64 1011.8
20260508175121 23 139 4.8 8.0 0.00 0.00 0.00 67 1011.6
20260508174618 23 157 6.4 9.7 0.00 0.00 0.00 67 1011.9
20260508174115 22 149 4.8 8.0 0.00 0.00 0.00 66 1011.8
20260508173612 22 142 6.4 8.0 0.00 0.00 0.00 67 1011.7
20260508173108 22 147 11.3 11.3 0.00 0.00 0.00 65 1011.9
20260508172605 22 148 6.4 9.7 0.00 0.00 0.00 66 1012.1
20260508172101 22 143 8.0 11.3 0.00 0.00 0.00 67 1012.2
20260508171558 22 191 3.2 8.0 0.00 0.00 0.00 66 1012.3
20260508171054 22 159 3.2 11.3 0.00 0.00 0.00 68 1012.5
20260508170552 22 142 11.3 11.3 0.00 0.00 0.00 66 1012.6
20260508170049 22 150 4.8 9.7 0.00 0.00 0.00 66 1012.8
20260508165546 22 142 6.4 9.7 0.00 0.00 0.00 67 1012.8
20260508165043 22 150 4.8 9.7 0.00 0.00 0.00 66 1013.0
20260508164539 22 162 4.8 6.4 0.00 0.00 0.00 69 1013.3
20260508164036 22 144 4.8 9.7 0.00 0.00 0.00 68 1013.1
20260508163534 22 146 8.0 8.0 0.00 0.00 0.00 66 1013.5
20260508163030 21 146 6.4 8.0 0.00 0.00 0.00 68 1013.5
20260508162527 21 190 8.0 9.7 0.00 0.00 0.00 69 1013.6
20260508162025 21 146 4.8 8.0 0.00 0.00 0.00 69 1013.6
20260508161521 21 157 4.8 9.7 0.00 0.00 0.00 69 1013.8
20260508161018 21 147 4.8 9.7 0.00 0.00 0.00 70 1013.6
20260508160517 21 168 3.2 12.9 0.00 0.00 0.00 69 1013.7
20260508160014 20 150 6.4 12.9 0.00 0.00 0.00 70 1013.8
20260508155510 20 146 8.0 9.7 0.00 0.00 0.00 70 1013.8
20260508155008 20 171 3.2 14.5 0.00 0.00 0.00 70 1014.0
20260508154505 21 149 8.0 11.3 0.00 0.00 0.00 69 1014.2
20260508154001 20 154 4.8 14.5 0.00 0.00 0.00 71 1014.1
20260508153458 20 148 12.9 16.1 0.00 0.00 0.00 71 1013.8
20260508152954 20 181 3.2 9.7 0.00 0.00 0.00 68 1014.0
20260508152451 20 168 6.4 9.7 0.00 0.00 0.00 70 1014.1
20260508151947 20 165 3.2 9.7 0.00 0.00 0.00 69 1014.2
20260508151444 20 148 12.9 14.5 0.00 0.00 0.00 70 1014.0
20260508150941 20 140 11.3 12.9 0.00 0.00 0.00 70 1014.1
20260508150437 20 155 9.7 14.5 0.00 0.00 0.00 70 1014.1
20260508145933 20 158 8.0 14.5 0.00 0.00 0.00 70 1014.1
20260508145430 20 146 9.7 12.9 0.00 0.00 0.00 71 1013.9
20260508144927 20 138 11.3 12.9 0.00 0.00 0.00 70 1013.9
20260508144425 20 144 8.0 12.9 0.00 0.00 0.00 71 1013.9
20260508143922 20 145 9.7 11.3 0.00 0.00 0.00 71 1014.0
20260508143419 19 130 8.0 14.5 0.00 0.00 0.00 71 1014.0
20260508142915 19 141 11.3 16.1 0.00 0.00 0.00 71 1014.1
20260508142413 20 132 11.3 16.1 0.00 0.00 0.00 72 1014.3
20260508141909 20 131 17.7 19.3 0.00 0.00 0.00 70 1014.5
20260508141406 19 139 19.3 19.3 0.00 0.00 0.00 72 1014.2
20260508140904 19 139 16.1 20.9 0.00 0.00 0.00 71 1014.3
20260508140400 19 136 16.1 19.3 0.00 0.00 0.00 73 1014.3
20260508135856 19 143 12.9 17.7 0.00 0.00 0.00 73 1014.3
20260508135352 19 124 12.9 17.7 0.00 0.00 0.00 72 1014.3
20260508134849 19 123 11.3 16.1 0.00 0.00 0.00 74 1014.4
20260508134345 18 130 17.7 19.3 0.00 0.00 0.00 74 1014.1
20260508133842 18 118 12.9 16.1 0.00 0.00 0.00 75 1014.2
20260508133340 18 116 12.9 14.5 0.00 0.00 0.00 76 1014.1
20260508132837 18 128 12.9 16.1 0.00 0.00 0.00 76 1014.2
20260508132335 18 119 14.5 16.1 0.00 0.00 0.00 78 1014.4
20260508131831 17 117 9.7 14.5 0.00 0.00 0.00 76 1014.6
20260508131327 17 115 12.9 17.7 0.00 0.00 0.00 77 1014.4
20260508130824 17 129 12.9 14.5 0.00 0.00 0.00 77 1014.6
20260508130321 18 119 6.4 11.3 0.00 0.00 0.00 77 1014.5
20260508125817 18 117 9.7 9.7 0.00 0.00 0.00 78 1014.5
20260508125313 17 125 9.7 11.3 0.00 0.00 0.00 76 1014.6
20260508124811 17 114 4.8 4.8 0.00 0.00 0.00 77 1014.7
20260508124308 17 112 4.8 4.8 0.00 0.00 0.00 77 1015.0
20260508123806 17 94 4.8 4.8 0.00 0.00 0.00 78 1014.9
20260508123304 17 130 9.7 14.5 0.00 0.00 0.00 78 1014.5
20260508122800 17 121 17.7 19.3 0.00 0.00 0.00 78 1014.4
20260508122257 17 116 14.5 19.3 0.00 0.00 0.00 78 1014.4
20260508121754 17 135 11.3 14.5 0.00 0.00 0.00 78 1014.6
20260508121253 17 129 12.9 19.3 0.00 0.00 0.00 78 1014.6
20260508120749 17 136 12.9 12.9 0.00 0.00 0.00 78 1014.6
20260508120248 17 142 12.9 16.1 0.00 0.00 0.00 78 1014.5
20260508115745 17 151 8.0 12.9 0.00 0.00 0.00 78 1014.5
20260508115242 17 141 11.3 17.7 0.00 0.00 0.00 79 1014.6
20260508114733 17 133 14.5 19.3 0.00 0.00 0.00 82 1014.4
20260508114230 17 132 14.5 19.3 0.00 0.00 0.00 85 1014.4
20260508113727 16 149 11.3 11.3 0.00 0.00 0.00 87 1014.4
20260508113226 16 189 0.0 3.2 0.00 0.00 0.00 86 1014.7
20260508112721 16 120 1.6 1.6 0.00 0.00 0.00 85 1015.0
20260508112218 16 269 0.0 1.6 0.00 0.00 0.00 85 1014.9
20260508111714 16 150 1.6 3.2 0.00 0.00 0.00 85 1014.9
20260508111212 16 233 1.6 3.2 0.00 0.00 0.00 85 1015.3
20260508110710 16 271 0.0 6.4 0.00 0.00 0.00 85 1015.4
20260508110207 16 281 3.2 4.8 0.00 0.00 0.00 84 1015.2
20260508105706 17 323 0.0 4.8 0.00 0.00 0.00 84 1014.8
20260508105203 17 231 3.2 6.4 0.00 0.00 0.00 83 1014.5
20260508104701 17 245 4.8 4.8 0.00 0.00 0.00 83 1014.2
20260508104157 17 153 3.2 9.7 0.00 0.00 0.00 83 1013.9
20260508103654 17 141 4.8 8.0 0.00 0.00 0.00 84 1013.9
20260508103151 17 139 9.7 12.9 0.00 0.00 0.00 84 1013.6
20260508102649 17 159 8.0 14.5 0.00 0.00 0.00 84 1013.6
20260508102147 17 144 12.9 16.1 0.00 0.00 0.00 84 1013.4
20260508101644 17 141 14.5 19.3 0.00 0.00 0.00 84 1013.3
20260508101142 17 142 17.7 17.7 0.00 0.00 0.00 84 1013.5
20260508100639 17 136 14.5 17.7 0.00 0.00 0.00 82 1013.6
20260508100137 17 142 14.5 16.1 0.00 0.00 0.00 83 1013.9
20260508095633 17 134 11.3 12.9 0.00 0.00 0.00 82 1013.8
20260508095130 17 146 12.9 14.5 0.00 0.00 0.00 82 1013.8
20260508094627 17 140 11.3 14.5 0.00 0.00 0.00 82 1013.7
20260508094124 17 146 9.7 12.9 0.00 0.00 0.00 82 1013.7
20260508093621 17 137 9.7 12.9 0.00 0.00 0.00 81 1013.7
20260508093119 17 141 12.9 17.7 0.00 0.00 0.00 82 1013.8
20260508092616 17 141 12.9 14.5 0.00 0.00 0.00 81 1013.8
20260508092114 17 131 14.5 16.1 0.00 0.00 0.00 82 1013.6
20260508091610 17 139 14.5 16.1 0.00 0.00 0.00 84 1013.8
20260508091107 17 138 14.5 17.7 0.00 0.00 0.00 83 1013.7
20260508090605 17 135 14.5 19.3 0.00 0.00 0.00 82 1014.1
20260508085558 18 132 19.3 25.7 0.00 0.00 0.00 81 1013.5
20260508085056 17 138 19.3 20.9 0.00 0.00 0.00 82 1013.8
20260508084552 17 130 11.3 14.5 0.00 0.00 0.00 85 1014.2
20260508084049 16 135 0.0 1.6 0.00 0.00 0.00 86 1014.6
20260508083547 16 143 0.0 0.0 0.00 0.00 0.00 86 1014.8
20260508083043 16 150 0.0 1.6 0.00 0.00 0.00 86 1014.8
20260508082539 17 129 1.6 3.2 0.00 0.00 0.00 85 1015.0
20260508082037 17 66 0.0 1.6 0.00 0.00 0.00 85 1014.9
20260508081534 17 296 0.0 1.6 0.00 0.00 0.00 85 1015.2
20260508081030 17 280 3.2 3.2 0.00 0.00 0.00 84 1015.1
20260508080528 17 29 0.0 1.6 0.00 0.00 0.00 84 1015.0
20260508080025 17 266 3.2 4.8 0.00 0.00 0.00 84 1015.4
20260508075522 17 276 4.8 6.4 0.00 0.00 0.00 83 1015.3
20260508075019 17 203 3.2 6.4 0.00 0.00 0.00 84 1014.9
20260508074517 17 147 3.2 4.8 0.00 0.00 0.00 83 1014.8
20260508074013 17 204 3.2 3.2 0.00 0.00 0.00 83 1014.7
20260508073511 17 202 0.0 3.2 0.00 0.00 0.00 83 1014.7
20260508073008 17 140 4.8 6.4 0.00 0.00 0.00 83 1014.6
20260508072504 17 147 3.2 6.4 0.00 0.00 0.00 83 1014.6
20260508072001 17 143 4.8 6.4 0.00 0.00 0.00 83 1014.8
20260508071459 17 144 4.8 9.7 0.00 0.00 0.00 83 1014.8
20260508070956 17 141 8.0 9.7 0.00 0.00 0.00 83 1014.8
20260508070454 17 135 11.3 12.9 0.00 0.00 0.00 83 1014.8
20260508065952 17 134 9.7 14.5 0.00 0.00 0.00 83 1015.2
20260508065450 17 138 8.0 11.3 0.00 0.00 0.00 84 1015.1